Location: Epalinges
(46.5518°N, 6.6683°E)
Time: 02:40:02
(UTC+00:00)

BREEZE-M DEB (TANK) - Pass Details

Date: 20 June 2021
Orbit: 332 x 16575 km, 49.3° (Epoch: 24 July)

Event Time Altitude Azimuth Distance (km) Brightness Sun altitude
Rises 02:00:28 0° 286° (WNW) 2,628 5.6 -12.7°
Reaches altitude 10° 02:02:49 10° 291° (WNW) 1,389 4.2 -12.4°
Maximum altitude 02:05:16 58° 13° (NNE) 393 1.9 -12.2°
Drops below altitude 10° 02:07:47 10° 95° (E) 1,435 4.9 -11.9°
Sets 02:10:16 0° 99° (E) 2,738 6.3 -11.7°
